Location: Unspecified
(0.0000°N, 0.0000°E)
Time: 04:47:55
(UTC+01:00)

Iridium 84 - Visible Passes

Search period start: 24 November 2014 00:00
Search period end: 04 December 2014 00:00
Orbit: 776 x 779 km, 86.4° (Epoch: 23 November)

Date Brightness Start Highest point End Pass type
(mag) Time Alt. Az. Time Alt. Az. Time Alt. Az.
01 Dec 8.4 21:54:53 10° SSW 21:55:05 11° SSW 21:55:05 11° SSW visible
02 Dec 7.7 21:21:00 10° S 21:22:09 17° S 21:22:09 17° S visible
03 Dec 7.4 20:47:51 10° SSE 20:49:14 18° SSE 20:49:14 18° SSE visible
